Blacksburg, VA

1:18 PM EDT on March 30, 2017 (GMT -0400)
Virginia Tech

Weather History for KBCB - April, 2012

Change the Weather History Date:

Friday, April 27, 2012

  Actual Average Record
Temperature  
Mean Temperature 54 °F 54 °F  
Max Temperature 65 °F 67 °F 85 °F (1994)
Min Temperature 43 °F 41 °F 25 °F (1974)
Degree Days  
Heating Degree Days 11 11  
Month to date heating degree days 345 399  
Since 1 July heating degree days 4249 5174  
Cooling Degree Days 0 0  
Month to date cooling degree days 0 0  
Year to date cooling degree days 0 0  
Growing Degree Days 7 (Base 50)    
Moisture  
Dew Point 45 °F    
Average Humidity 69    
Maximum Humidity 100    
Minimum Humidity 37    
Precipitation  
Precipitation 0.00 in 0.12 in 2.70 in (1978)
Month to date precipitation 4.71 3.14  
Year to date precipitation 14.16 12.67  
Snow  
Snow 0.00 in - - ()
Month to date snowfall T  
Since 1 July snowfall 10.0  
Snow Depth 0.00 in    
Sea Level Pressure  
Sea Level Pressure 30.06 in    
Wind  
Wind Speed 7 mph (WNW)    
Max Wind Speed 15 mph    
Max Gust Speed 21 mph    
Visibility 10 miles    
Events      
T = Trace of Precipitation, MM = Missing Value Source: NWS Daily Summary

Daily Weather History Graph

Daily Weather History Graph

Search for Another Location

Airport or City:

Trip Planner

Search our weather history database for the weather conditions in past years. The results will help you decide how hot, cold, wet, or windy it might be!

Date:

Astronomy

Apr. 27, 2012 Rise Set
Actual Time 6:31 AM EDT 8:07 PM EDT
Civil Twilight 6:03 AM EDT 8:35 PM EDT
Nautical Twilight 5:30 AM EDT 9:09 PM EDT
Astronomical Twilight 4:54 AM EDT 9:44 PM EDT
Moon 11:09 AM EDT (4/27) 12:51 AM EDT (4/27)
Length of Visible Light 14h 32m
Length of Day
13h 36m
Waxing Crescent, 33% of the Moon is Illuminated
Apr 27
Waxing Crescent
Apr 29
First Quarter
May 5
Full
May 12
Last Quarter
May 20
New

Hourly Weather History & Observations

Time (EDT) Temp. Dew Point Humidity Pressure Visibility Wind Dir Wind Speed Gust Speed Precip Events Conditions
12:15 AM 59.0 °F 59.0 °F 100% 29.90 in 7.0 mi WNW 8.1 mph - N/A   Clear
12:35 AM 59.0 °F 57.2 °F 94% 29.90 in 7.0 mi WNW 8.1 mph - N/A   Clear
12:55 AM 57.2 °F 57.2 °F 100% 29.91 in 7.0 mi WNW 5.8 mph - N/A   Clear
1:15 AM 57.2 °F 57.2 °F 100% 29.91 in 7.0 mi WNW 8.1 mph - N/A   Clear
1:35 AM 59.0 °F 57.2 °F 94% 29.91 in 7.0 mi WNW 10.4 mph - N/A   Scattered Clouds
1:55 AM 57.2 °F 55.4 °F 94% 29.91 in 7.0 mi West 9.2 mph - N/A   Mostly Cloudy
2:15 AM 57.2 °F 55.4 °F 94% 29.91 in 7.0 mi WNW 11.5 mph 16.1 mph N/A   Scattered Clouds
2:35 AM 57.2 °F 55.4 °F 94% 29.91 in 7.0 mi WNW 9.2 mph 17.3 mph N/A   Mostly Cloudy
2:55 AM 57.2 °F 55.4 °F 94% 29.90 in 7.0 mi WNW 9.2 mph 18.4 mph N/A   Scattered Clouds
3:15 AM 57.2 °F 53.6 °F 88% 29.91 in 7.0 mi WNW 10.4 mph 21.9 mph N/A   Scattered Clouds
3:35 AM 57.2 °F 53.6 °F 88% 29.92 in 7.0 mi NW 15.0 mph 19.6 mph N/A   Scattered Clouds
3:55 AM 55.4 °F 51.8 °F 88% 29.93 in 10.0 mi NW 9.2 mph 16.1 mph N/A   Scattered Clouds
4:15 AM 55.4 °F 50.0 °F 82% 29.94 in 10.0 mi WNW 11.5 mph 23.0 mph N/A   Clear
4:35 AM 53.6 °F 48.2 °F 82% 29.94 in 10.0 mi WNW 10.4 mph 18.4 mph N/A   Clear
4:55 AM 53.6 °F 48.2 °F 82% 29.94 in 10.0 mi WNW 9.2 mph 19.6 mph N/A   Clear
5:15 AM 53.6 °F 48.2 °F 82% 29.95 in 10.0 mi WNW 8.1 mph 17.3 mph N/A   Scattered Clouds
5:35 AM 53.6 °F 48.2 °F 82% 29.96 in 10.0 mi WNW 9.2 mph - N/A   Scattered Clouds
5:55 AM 53.6 °F 48.2 °F 82% 29.97 in 10.0 mi WNW 15.0 mph 20.7 mph N/A   Clear
6:15 AM 51.8 °F 46.4 °F 82% 29.98 in 10.0 mi WNW 10.4 mph - N/A   Clear
6:35 AM 51.8 °F 46.4 °F 82% 29.99 in 10.0 mi NW 9.2 mph - N/A   Scattered Clouds
6:55 AM 51.8 °F 46.4 °F 82% 30.01 in 10.0 mi WNW 8.1 mph 19.6 mph N/A   Clear
7:15 AM 51.8 °F 46.4 °F 82% 30.01 in 10.0 mi WNW 11.5 mph - N/A   Scattered Clouds
7:35 AM 51.8 °F 46.4 °F 82% 30.02 in 10.0 mi NW 13.8 mph 19.6 mph N/A   Scattered Clouds
7:55 AM 51.8 °F 46.4 °F 82% 30.04 in 10.0 mi WNW 9.2 mph - N/A   Clear
8:15 AM 51.8 °F 44.6 °F 76% 30.06 in 10.0 mi WNW 9.2 mph 18.4 mph N/A   Scattered Clouds
8:35 AM 51.8 °F 44.6 °F 76% 30.07 in 10.0 mi NW 8.1 mph - N/A   Scattered Clouds
8:55 AM 51.8 °F 42.8 °F 71% 30.09 in 10.0 mi WNW 10.4 mph - N/A   Mostly Cloudy
9:15 AM 53.6 °F 44.6 °F 72% 30.10 in 10.0 mi West 5.8 mph - N/A   Overcast
9:35 AM 53.6 °F 44.6 °F 72% 30.12 in 10.0 mi WNW 6.9 mph 17.3 mph N/A   Overcast
9:55 AM 53.6 °F 44.6 °F 72% 30.12 in 10.0 mi West 6.9 mph - N/A   Mostly Cloudy
10:15 AM 53.6 °F 42.8 °F 67% 30.12 in 10.0 mi WNW 8.1 mph - N/A   Scattered Clouds
10:35 AM 53.6 °F 42.8 °F 67% 30.12 in 10.0 mi WNW 6.9 mph 16.1 mph N/A   Scattered Clouds
10:55 AM 53.6 °F 42.8 °F 67% 30.13 in 10.0 mi WNW 11.5 mph - N/A   Clear
11:15 AM 55.4 °F 41.0 °F 58% 30.13 in 10.0 mi WNW 9.2 mph - N/A   Clear
11:35 AM 55.4 °F 41.0 °F 58% 30.13 in 10.0 mi WNW 10.4 mph 17.3 mph N/A   Clear
11:55 AM 55.4 °F 42.8 °F 63% 30.14 in 10.0 mi NW 10.4 mph - N/A   Clear
12:15 PM 57.2 °F 42.8 °F 59% 30.13 in 10.0 mi WNW 9.2 mph 17.3 mph N/A   Clear
12:35 PM 57.2 °F 42.8 °F 59% 30.13 in 10.0 mi West 8.1 mph - N/A   Clear
12:55 PM 59.0 °F 42.8 °F 55% 30.13 in 10.0 mi NW 13.8 mph 18.4 mph N/A   Clear
1:15 PM 59.0 °F 42.8 °F 55% 30.13 in 10.0 mi NW 11.5 mph 19.6 mph N/A   Clear
1:35 PM 60.8 °F 42.8 °F 52% 30.12 in 10.0 mi WNW 8.1 mph - N/A   Clear
1:55 PM 60.8 °F 42.8 °F 52% 30.12 in 10.0 mi WNW 6.9 mph - N/A   Clear
2:15 PM 62.6 °F 42.8 °F 48% 30.12 in 10.0 mi WNW 6.9 mph - N/A   Clear
2:35 PM 62.6 °F 42.8 °F 48% 30.12 in - WSW 6.9 mph 18.4 mph N/A   Clear
2:55 PM 62.6 °F 41.0 °F 45% 30.12 in 10.0 mi West 5.8 mph - N/A   Clear
3:15 PM 64.4 °F 39.2 °F 40% 30.12 in 10.0 mi NW 11.5 mph 17.3 mph N/A   Clear
3:35 PM 64.4 °F 39.2 °F 40% 30.11 in 10.0 mi NW 12.7 mph 18.4 mph N/A   Clear
3:55 PM 64.4 °F 39.2 °F 40% 30.10 in 10.0 mi NW 10.4 mph - N/A   Clear
4:15 PM 64.4 °F 39.2 °F 40% 30.10 in 10.0 mi WNW 8.1 mph - N/A   Clear
4:35 PM 64.4 °F 41.0 °F 42% 30.10 in 10.0 mi NW 8.1 mph - N/A   Clear
4:55 PM 66.2 °F 41.0 °F 40% 30.09 in 10.0 mi Calm Calm - N/A   Clear
5:15 PM 66.2 °F 41.0 °F 40% 30.09 in 10.0 mi WNW 8.1 mph - N/A   Clear
5:35 PM 64.4 °F 39.2 °F 40% 30.09 in 10.0 mi WNW 5.8 mph - N/A   Clear
5:55 PM 66.2 °F 39.2 °F 37% 30.09 in 10.0 mi WNW 4.6 mph - N/A   Clear
6:15 PM 64.4 °F 39.2 °F 40% 30.09 in 10.0 mi WNW 8.1 mph - N/A   Clear
6:35 PM 64.4 °F 39.2 °F 40% 30.09 in 10.0 mi NW 5.8 mph - N/A   Clear
6:55 PM 64.4 °F 39.2 °F 40% 30.10 in 10.0 mi NW 6.9 mph - N/A   Clear
7:15 PM 64.4 °F 39.2 °F 40% 30.10 in 10.0 mi WNW 6.9 mph - N/A   Clear
7:35 PM 62.6 °F 37.4 °F 39% 30.11 in 10.0 mi West 3.5 mph - N/A   Clear
7:55 PM 60.8 °F 37.4 °F 42% 30.12 in 10.0 mi WNW 4.6 mph - N/A   Clear
8:15 PM 55.4 °F 42.8 °F 63% 30.13 in 10.0 mi Calm Calm - N/A   Clear
8:35 PM 55.4 °F 42.8 °F 63% 30.13 in 10.0 mi NNW 3.5 mph - N/A   Clear
8:55 PM 55.4 °F 39.2 °F 54% 30.13 in 10.0 mi NNW 4.6 mph - N/A   Clear
9:15 PM 53.6 °F 39.2 °F 58% 30.14 in 10.0 mi Calm Calm - N/A   Clear
9:35 PM 53.6 °F 39.2 °F 58% 30.15 in 10.0 mi NNW 4.6 mph - N/A   Clear
9:55 PM 53.6 °F 39.2 °F 58% 30.16 in 10.0 mi Calm Calm - N/A   Clear
10:15 PM 51.8 °F 39.2 °F 62% 30.17 in 10.0 mi Calm Calm - N/A   Clear
10:35 PM 50.0 °F 41.0 °F 71% 30.17 in 10.0 mi Calm Calm - N/A   Clear
10:55 PM 48.2 °F 41.0 °F 76% 30.17 in 10.0 mi Calm Calm - N/A   Clear
11:15 PM 48.2 °F 42.8 °F 82% 30.17 in 10.0 mi Calm Calm - N/A   Clear
11:35 PM 48.2 °F 41.0 °F 76% 30.17 in 10.0 mi Calm Calm - N/A   Clear
11:55 PM 46.4 °F 39.2 °F 76% 30.18 in 10.0 mi Calm Calm - N/A   Clear